This is the latest recevied weather packets stored in our database for station/object KA3RQR. If no packets are shown the sender has not sent any weather packets the latest 10 day(s).
| Time | Temp. | Humidity | Pressure | Rain* | Wind** | Luminosity | Snow |
|---|---|---|---|---|---|---|---|
| 1777304248 | 16.11° C | 64% | 1024.8 hPa | 0 mm | - | 179 W/m² | - |
| 1777303945 | 16.11° C | 63% | 1024.8 hPa | 0 mm | - | 58 W/m² | - |
| 1777303642 | 15.56° C | 62% | 1024.9 hPa | 0 mm | - | 61 W/m² | - |
| 1777303340 | 15.56° C | 65% | 1025 hPa | 0 mm | - | 53 W/m² | - |
| 1777303037 | 16.11° C | 65% | 1024.9 hPa | 0 mm | - | 49 W/m² | - |
| 1777302735 | 15.56° C | 64% | 1024.9 hPa | 0 mm | - | 49 W/m² | - |
| 1777302433 | 15° C | 66% | 1025 hPa | 0 mm | - | 45 W/m² | - |
| 1777302130 | 15° C | 68% | 1024.9 hPa | 0 mm | - | 50 W/m² | - |
| 1777301827 | 15° C | 67% | 1025 hPa | 0 mm | - | 69 W/m² | - |
| 1777301525 | 15° C | 67% | 1025.1 hPa | 0 mm | - | 41 W/m² | - |
| 1777301221 | 15° C | 69% | 1025.1 hPa | 0 mm | - | 61 W/m² | - |
| 1777300918 | 14.44° C | 70% | 1025.1 hPa | 0 mm | - | 45 W/m² | - |
| 1777300616 | 14.44° C | 69% | 1025.2 hPa | 0 mm | - | 49 W/m² | - |
| 1777300313 | 14.44° C | 70% | 1025.1 hPa | 0 mm | - | 44 W/m² | - |
| 1777300010 | 14.44° C | 71% | 1025.3 hPa | 0 mm | - | 52 W/m² | - |
| 1777299707 | 14.44° C | 70% | 1025.3 hPa | 0 mm | - | 72 W/m² | - |
| 1777299405 | 13.89° C | 71% | 1025.2 hPa | 0 mm | - | 81 W/m² | - |
| 1777299102 | 13.89° C | 73% | 1025.3 hPa | 0 mm | - | 54 W/m² | - |
| 1777298800 | 13.89° C | 72% | 1025.2 hPa | 0 mm | - | 54 W/m² | - |
| 1777298495 | 13.33° C | 73% | 1025.2 hPa | 0 mm | - | 40 W/m² | - |
| 1777298192 | 13.33° C | 74% | 1024.9 hPa | 0 mm | - | 62 W/m² | - |
| 1777297888 | 13.33° C | 74% | 1025.1 hPa | 0 mm | - | 46 W/m² | - |
| 1777297585 | 12.78° C | 77% | 1025 hPa | 0 mm | - | 37 W/m² | - |
| 1777297281 | 12.78° C | 77% | 1025.2 hPa | 0 mm | - | 45 W/m² | - |
| 1777296979 | 12.78° C | 78% | 1025 hPa | 0 mm | - | 40 W/m² | - |
* Rain latest hour (hover to see other rain measurements)
** Current wind speed in m/s (hover to see current wind gust speed)